Regional Weather Roundup
Issued by NWS Nashville, TN

Home | Current Version | Previous Version | Text Only | Print | Product List | Glossary On
Versions: 1 2 3 4 5 6 7 8 9 10 11 12 13 14 15 16 17 18 19 20 21 22 23 24 25 26 27 28 29 30 31 32 33 34 35 36 37 38 39 40 41 42 43 44 45 46 47 48 49 50
000
ASUS44 KOHX 280510
RWROHX
MIDDLE TENNESSEE HOURLY WEATHER ROUNDUP
NATIONAL WEATHER SERVICE NASHVILLE TN
1200 AM CDT TUE MAR 28 2017

NOTE: "FAIR" INDICATES FEW OR NO CLOUDS BELOW 12,000 FEET WITH
NO SIGNIFICANT WEATHER AND/OR OBSTRUCTIONS TO VISIBILITY.

* THESE REPORTS ARE NOT UNDER NWS QUALITY CONTROL AND MAY NOT
  REPORT WEATHER SUCH AS PRECIPITATION AND FOG.


TNZ005>011-023>034-057-059-062>066-078-080-280600
...NORTHERN MIDDLE TENNESSEE...

CITY           SKY/WX    TMP DP  RH WIND       PRES   REMARKS
CLARKSVILLE    FOG       54  53  97 W3        29.87F VSB 1/2
CROSSVILLE     MOCLDY    55  51  86 CALM      29.92R
GALLATIN       PTCLDY    57  55  94 CALM      29.89R
NASHVILLE      MOCLDY    59  57  93 W3        29.87R
PORTLAND       CLOUDY    57  55  94 NW3       29.87R
SMYRNA         RAIN      59  57  93 S3          N/A
SPARTA         MOCLDY    55  55 100 S5        29.88S
WEST NASHVILLE   N/A     55  55 100 CALM        N/A
$$
TNZ056-058-060-061-075>077-079-093>097-280600
...SOUTHERN MIDDLE TENNESSEE...

CITY           SKY/WX    TMP DP  RH WIND       PRES   REMARKS
COLUMBIA       MOCLDY   N/A N/A N/A S7        29.87S
FAYETTEVILLE   CLOUDY    59  59 100 SW8       29.92R
MCMINNVILLE    CLEAR     57  57 100 CALM      29.89S
SHELBYVILLE    MOCLDY    57  57 100 S8        29.90S
TULLAHOMA      MOCLDY    55  55 100 S3        29.91R
WINCHESTER     PTCLDY    57  55  94 S8        29.91R
$$


...KEY TO REMARKS...
VSB - VISIBILITY IN MILES
WCI - WIND CHILL INDEX
HX  - HEAT INDEX




USA.gov is the U.S. government's official web portal to all federal, state and local government web resources and services.